TimeCDT,TemperatureF,Dew PointF,Humidity,Sea Level PressureIn,VisibilityMPH,Wind Direction,Wind SpeedMPH,Gust SpeedMPH,PrecipitationIn,Events,Conditions,WindDirDegrees,DateUTC
12:53 AM,62.1,52.0,70,29.91,10.0,Calm,Calm,-,N/A,,Scattered Clouds,0,2013-10-03 05:53:00
1:53 AM,63.0,51.1,65,29.91,10.0,Calm,Calm,-,N/A,,Mostly Cloudy,0,2013-10-03 06:53:00
2:53 AM,60.1,53.1,78,29.90,10.0,Calm,Calm,-,N/A,,Scattered Clouds,0,2013-10-03 07:53:00
3:53 AM,57.9,53.1,84,29.90,10.0,Calm,Calm,-,N/A,,Scattered Clouds,0,2013-10-03 08:53:00
4:08 AM,61.0,55.9,83,29.93,3.0,NNW,8.1,-,0.08,Rain-Thunderstorm,Heavy Thunderstorms and Rain,340,2013-10-03 09:08:00
4:19 AM,60.1,57.0,90,29.94,6.0,East,4.6,-,0.10,Rain-Thunderstorm,Thunderstorms and Rain,80,2013-10-03 09:19:00
4:35 AM,60.1,57.0,90,29.93,4.0,Calm,Calm,-,0.14,Rain-Thunderstorm,Light Rain,0,2013-10-03 09:35:00
4:37 AM,60.1,57.0,90,29.94,1.8,SSE,4.6,-,0.23,Rain-Thunderstorm,Light Rain,150,2013-10-03 09:37:00
4:48 AM,59.0,57.2,94,29.93,2.0,Calm,Calm,-,0.32,Rain-Thunderstorm,Heavy Rain,0,2013-10-03 09:48:00
4:53 AM,59.0,57.9,96,29.93,1.8,SE,4.6,-,0.37,Rain-Thunderstorm,Heavy Rain,140,2013-10-03 09:53:00
5:03 AM,60.1,57.9,93,29.93,2.5,Calm,Calm,-,0.03,Rain,Heavy Rain,0,2013-10-03 10:03:00
5:12 AM,60.1,57.9,93,29.92,3.0,Calm,Calm,-,0.05,Rain,Rain,0,2013-10-03 10:12:00
5:21 AM,60.1,57.9,93,29.92,2.0,Calm,Calm,-,0.08,Rain,Heavy Rain,0,2013-10-03 10:21:00
5:35 AM,60.1,57.9,93,29.91,3.0,North,3.5,-,0.09,Rain,Light Rain,350,2013-10-03 10:35:00
5:53 AM,60.1,57.9,93,29.91,3.0,Calm,Calm,-,0.09,,Mostly Cloudy,0,2013-10-03 10:53:00
6:19 AM,60.1,57.9,93,29.91,3.0,Calm,Calm,-,N/A,Thunderstorm,Mostly Cloudy,0,2013-10-03 11:19:00
6:28 AM,59.0,57.9,96,29.91,2.5,Calm,Calm,-,N/A,,Mostly Cloudy,0,2013-10-03 11:28:00
6:46 AM,59.0,57.9,96,29.91,2.5,Calm,Calm,-,N/A,,Mostly Cloudy,0,2013-10-03 11:46:00
6:53 AM,59.0,57.9,96,29.91,2.5,Calm,Calm,-,N/A,,Mostly Cloudy,0,2013-10-03 11:53:00
7:15 AM,60.1,57.9,93,29.90,1.5,ENE,3.5,-,N/A,,Overcast,70,2013-10-03 12:15:00
7:29 AM,60.1,59.0,96,29.90,1.5,East,3.5,-,N/A,,Overcast,90,2013-10-03 12:29:00
7:53 AM,61.0,59.0,93,29.90,1.5,Calm,Calm,-,N/A,,Overcast,0,2013-10-03 12:53:00
8:10 AM,62.1,59.0,90,29.89,2.5,NE,3.5,-,N/A,,Mostly Cloudy,40,2013-10-03 13:10:00
8:19 AM,62.1,60.1,93,29.89,2.5,ENE,3.5,-,N/A,,Scattered Clouds,60,2013-10-03 13:19:00
8:27 AM,62.1,59.0,90,29.89,3.0,NE,4.6,-,N/A,,Scattered Clouds,40,2013-10-03 13:27:00
8:53 AM,64.0,60.1,87,29.88,5.0,North,4.6,-,N/A,,Clear,350,2013-10-03 13:53:00
9:53 AM,68.0,62.1,81,29.53,8.0,Variable,3.5,-,N/A,,Clear,0,2013-10-03 14:53:00
10:53 AM,72.0,64.0,76,29.87,10.0,Calm,Calm,-,N/A,,Overcast,0,2013-10-03 15:53:00
11:42 AM,71.1,64.0,78,29.88,7.0,Variable,4.6,-,0.00,Thunderstorm,Mostly Cloudy,0,2013-10-03 16:42:00
11:51 AM,69.8,64.4,83,29.87,3.0,Variable,4.6,-,0.01,Rain-Thunderstorm,Thunderstorms and Rain,0,2013-10-03 16:51:00
11:53 AM,69.1,64.9,87,29.88,3.0,Variable,3.5,-,0.02,Rain-Thunderstorm,Heavy Thunderstorms and Rain,0,2013-10-03 16:53:00
12:22 PM,70.0,66.0,87,29.87,6.0,West,3.5,-,0.00,Thunderstorm,Overcast,270,2013-10-03 17:22:00
12:37 PM,71.1,66.9,87,29.85,5.0,Calm,Calm,-,0.00,,Overcast,0,2013-10-03 17:37:00
12:53 PM,73.0,66.9,81,29.84,8.0,East,4.6,-,0.00,,Mostly Cloudy,100,2013-10-03 17:53:00
1:12 PM,73.0,66.9,81,29.84,10.0,Variable,3.5,-,N/A,,Scattered Clouds,0,2013-10-03 18:12:00
1:53 PM,73.0,66.9,81,29.81,10.0,South,5.8,-,N/A,,Partly Cloudy,180,2013-10-03 18:53:00
2:01 PM,73.9,66.9,79,29.81,10.0,Variable,4.6,-,N/A,Thunderstorm,Partly Cloudy,0,2013-10-03 19:01:00
2:20 PM,75.0,66.9,76,29.79,10.0,Variable,5.8,-,N/A,Thunderstorm,Thunderstorm,0,2013-10-03 19:20:00
2:40 PM,69.1,64.0,84,29.84,1.0,West,28.8,41.4,0.13,Rain-Thunderstorm,Light Thunderstorms and Rain,280,2013-10-03 19:40:00
2:53 PM,66.9,62.1,84,29.53,0.5,SW,10.4,38.0,0.64,Rain-Thunderstorm,Light Thunderstorms and Rain,230,2013-10-03 19:53:00
2:56 PM,66.9,62.1,84,29.82,3.0,Variable,5.8,34.5,0.00,Rain-Thunderstorm,Light Thunderstorms and Rain,0,2013-10-03 19:56:00
3:09 PM,66.9,62.1,84,29.82,10.0,ENE,3.5,-,0.00,Thunderstorm,Overcast,60,2013-10-03 20:09:00
3:22 PM,68.0,63.0,84,29.83,10.0,Calm,Calm,-,0.00,Thunderstorm,Overcast,0,2013-10-03 20:22:00
3:26 PM,68.0,63.0,84,29.83,10.0,ENE,3.5,-,0.00,,Mostly Cloudy,60,2013-10-03 20:26:00
3:53 PM,69.1,64.9,87,29.53,10.0,Calm,Calm,-,0.00,,Overcast,0,2013-10-03 20:53:00
4:00 PM,69.1,64.9,87,29.82,10.0,NW,3.5,-,N/A,,Overcast,320,2013-10-03 21:00:00
4:53 PM,69.1,66.0,90,29.53,10.0,NW,5.8,-,N/A,,Mostly Cloudy,310,2013-10-03 21:53:00
5:53 PM,70.0,64.9,84,29.82,10.0,Calm,Calm,-,N/A,,Mostly Cloudy,0,2013-10-03 22:53:00
6:27 PM,69.1,64.9,87,29.82,10.0,ENE,3.5,-,N/A,,Mostly Cloudy,60,2013-10-03 23:27:00
6:53 PM,68.0,64.9,90,29.53,10.0,Calm,Calm,-,N/A,,Partly Cloudy,0,2013-10-03 23:53:00
7:53 PM,66.0,64.0,93,29.53,8.0,Calm,Calm,-,N/A,,Mostly Cloudy,0,2013-10-04 00:53:00
8:16 PM,66.0,64.0,93,29.85,1.8,Calm,Calm,-,N/A,,Mostly Cloudy,0,2013-10-04 01:16:00
8:23 PM,64.9,64.0,97,29.84,0.8,Calm,Calm,-,N/A,,Mostly Cloudy,0,2013-10-04 01:23:00
8:37 PM,64.9,63.0,93,29.84,0.2,Calm,Calm,-,N/A,Fog,Fog,0,2013-10-04 01:37:00
8:44 PM,64.9,64.0,97,29.84,0.5,Calm,Calm,-,N/A,Fog,Fog,0,2013-10-04 01:44:00
8:53 PM,64.9,64.0,97,29.84,0.5,NE,3.5,-,N/A,Fog,Fog,40,2013-10-04 01:53:00
9:12 PM,66.0,64.9,96,29.84,1.2,NE,3.5,-,N/A,,Overcast,40,2013-10-04 02:12:00
9:21 PM,66.0,64.9,96,29.84,3.0,NE,3.5,-,N/A,,Overcast,40,2013-10-04 02:21:00
9:48 PM,66.2,64.4,94,29.84,1.8,Calm,Calm,-,N/A,,Overcast,0,2013-10-04 02:48:00
9:53 PM,66.9,64.9,93,29.83,1.2,Calm,Calm,-,N/A,,Overcast,0,2013-10-04 02:53:00
9:55 PM,66.9,64.9,93,29.84,0.8,Calm,Calm,-,N/A,,Overcast,0,2013-10-04 02:55:00
11:53 PM,64.9,64.0,97,29.86,0.2,NE,3.5,-,N/A,Fog,Fog,50,2013-10-04 04:53:00